• Processing (Info)

  • MPEC 2023-F184 : 2023 FD6

    The following Minor Planet Electronic Circular may be linked-to from your own Web pages, but must not otherwise be redistributed electronically.

    A form allowing access to any MPEC is at the bottom of this page.


    Read MPEC 2023-F183 Read MPEC 2023-F185


    M.P.E.C. 2023-F184                               Issued 2023 March 28, 10:53 UT
    
         The Minor Planet Electronic Circulars contain information on unusual
             minor planets, routine data on comets and natural satellites,
             and occasional editorial announcements.  They are published
        on behalf of Division F of the International Astronomical Union by the
              Minor Planet Center, Smithsonian Astrophysical Observatory,
                              Cambridge, MA 02138, U.S.A.
    			  
                 Prepared using the Tamkin Foundation Computer Network
    
                                  MPC@CFA.HARVARD.EDU
                URL https://www.minorplanetcenter.net/    ISSN 1523-6714
    
                                    2023 FD6                                 
    
    
    Observations:
         K23F06D  C2023 03 26.38464812 15 38.796-08 53 46.49         22.00wUEF184F52
         K23F06D* C2023 03 26.40077512 15 39.597-08 53 50.61         21.61wUEF184F51
         K23F06D  C2023 03 26.40868812 15 39.997-08 53 52.34         21.97wUEF184F52
         K23F06D  C2023 03 26.41234112 15 40.169-08 53 53.48         21.83wUEF184F51
         K23F06D  C2023 03 26.42070812 15 40.594-08 53 55.54         21.51wUEF184F52
         K23F06D  C2023 03 26.42394012 15 40.745-08 53 56.28         21.70wUEF184F51
         K23F06D  C2023 03 26.43552012 15 41.325-08 53 59.05         21.91wUEF184F51
         K23F06D  C2023 03 26.53485312 15 46.346-08 54 22.12         21.61GVEF184F52
         K23F06D  C2023 03 26.53548312 15 46.377-08 54 22.30         21.24GVEF184F52
         K23F06D KC2023 03 26.60328812 15 51.35 -08 53 58.8          21.4 GVEF184474
         K23F06D KC2023 03 26.61032612 15 51.68 -08 54 00.1          21.5 GVEF184474
         K23F06D KC2023 03 26.61736412 15 52.10 -08 54 02.1          21.6 GVEF184474
         K23F06D |C2023 03 27.11709 12 16 26.54 -08 56 08.4          21.4 GVEF184807
         K23F06D |C2023 03 27.12633 12 16 27.02 -08 56 10.5          21.4 GVEF184807
         K23F06D |C2023 03 27.13558 12 16 27.50 -08 56 12.8          21.5 GVEF184807
         K23F06D KC2023 03 27.38355 12 16 41.86 -08 57 48.6          23.0 RoEF184291
         K23F06D KC2023 03 27.38943 12 16 42.16 -08 57 50.4          23.0 RoEF184291
         K23F06D KC2023 03 27.39530 12 16 42.45 -08 57 51.1                oEF184291
         K23F06D DC2023 03 28.24382 12 17 39.76 -09 01 00.9          21.2 GVEF184695
         K23F06D DC2023 03 28.24968 12 17 40.07 -09 01 02.2          21.5 GVEF184695
         K23F06D DC2023 03 28.25554 12 17 40.38 -09 01 03.7          21.7 GVEF184695
    
    Observer details:
    291 LPL/Spacewatch II.  Observer J. V. Scotti.  1.8-m f/2.7 reflector + CCD.
    474 Mount John Observatory, Lake Tekapo.  Observers A. C. Gilmore, P. M.
        Kilmartin.  Measurer P. M. Kilmartin.  1.0-m f/7.7 reflector + CCD.
    695 Kitt Peak.  Observer R. A. Mastaler.  2.3-m f/9 reflector + CCD.
    807 Cerro Tololo Observatory, La Serena.  Observers T. Linder, R. Holmes, L.
        Horn.  1.00-m f/10.0 astrograph + CCD.
    F51 Pan-STARRS 1, Haleakala.  Observers J. Bulger, T. Lowe, A. Schultz, I.
        Smith.  Measurers K. Chambers, S. Chastel, T. de Boer, J. Fairlamb, H.
        Gao, M. Huber, C.-C. Lin, E. Magnier, Y. Ramanjooloo, R. Wainscoat, R.
        Weryk.  1.8-m Ritchey-Chretien + CCD.
    F52 Pan-STARRS 2, Haleakala.  Observers J. Bulger, T. Lowe, A. Schultz, I.
        Smith, K. Chambers, T. Dukes.  Measurers K. Chambers, S. Chastel, T. de
        Boer, J. Fairlamb, H. Gao, M. Huber, C.-C. Lin, E. Magnier, Y.
        Ramanjooloo, R. Wainscoat, R. Weryk.  1.8-m Ritchey-Chretien + CCD.
    
    Orbital elements:
    2023 FD6                                                 Earth MOID = 0.2312 AU
    Epoch 2023 Feb. 25.0 TT = JDT 2460000.5                 Veres                   
    M 350.08669              (2000.0)            P               Q                  
    n   0.34124272     Peri.  298.58677     -0.99561077     +0.09078335             
    a   2.0281207      Node   246.62967     -0.07485753     -0.91834578             
    e   0.3946131      Incl.    1.42013     -0.05617420     -0.38522645             
    P   2.89           H   24.18          G   0.15           U   8                  
    Residuals in seconds of arc
    230326 F52  0.1+  0.0     230326 F52  0.1+  0.0     230327 807  0.1-  0.0
    230326 F51  0.0   0.1-    230326 F52  0.1+  0.1-    230327 291  0.6+  0.1-
    230326 F52  0.1+  0.2+    230326 474  0.4+  0.0     230327 291  0.4+  0.6-
    230326 F51  0.1-  0.0     230326 474  0.4-  0.3+    230327 291  0.1+  0.0
    230326 F52  0.1+  0.0     230326 474  0.1+  0.1-    230328 695  0.0   0.1+
    230326 F51  0.0   0.0     230327 807  0.0   0.1-    230328 695  0.0   0.2+
    230326 F51  0.0   0.1+    230327 807  0.0   0.1+    230328 695  0.0   0.0
    
    Ephemeris:
    2023 FD6                 a,e,i = 2.03, 0.39, 1                   q = 1.2278
    Date    TT    R. A. (2000) Decl.     Delta      r    Elong.  Phase     V
    2023 02 26    11 44 59.4 -05 11 29   0.2849  1.2576   157.3    17.7    22.9
    ...
    2023 03 13    12 01 29.3 -07 35 18   0.2461  1.2344   166.6    10.7    22.3
    ...
    2023 03 21    12 09 54.8 -08 27 59   0.2352  1.2288   171.0     7.2    22.0
    ...
    2023 03 27    12 16 17.8 -08 55 55   0.2316  1.2278   173.2     5.5    21.9
    2023 03 28    12 17 22.9 -08 59 43   0.2313  1.2279   173.4     5.3    21.9
    2023 03 29    12 18 28.5 -09 03 17   0.2312  1.2281   173.5     5.3    21.9
    ...
    2023 04 04    12 25 13.2 -09 20 37   0.2326  1.2309   172.6     6.0    21.9
    ...
    2023 04 12    12 34 46.3 -09 35 17   0.2403  1.2388   168.9     9.0    22.2
    ...
    2023 04 27    12 54 34.1 -09 54 25   0.2731  1.2662   159.9    15.9    22.7
    
    M. P. C. Staff               (C) Copyright 2023 MPC           M.P.E.C. 2023-F184
    


    Read MPEC 2023-F183 Read MPEC 2023-F185


    MPEC number:

    Enter an MPEC number in one of the following forms:

    • 1997-B01 (the full form)
    • J97B01 (the packed version of the full form)
    • B01 (the abbreviated form)